Content
SEND FEEDBACK

Daily
Averages
Monthly
Summary
United States of America

AGAT, GUAM


Home > North America > United States > Guam
Elevation: 364 feet     Latitude: 13 33N     Longitude: 144 50E

WEATHER
 
SELECT A DAY
Number of Records: 209,165;   Date Range: 1/1/95 - 8/30/14
 
SHARE

PRINT THIS DATA

[ ← Previous Day ]
WEATHER ALMANAC - JANUARY 11, 2014
[ Next Day → ]
[ °C ]   °F
Weather ElementAverageHighLow
Temperature80.5 °F84.9 °F (10:54 am)76.8 °F (10:54 pm)
Dewpoint72.1 °F75 °F (9:54 pm)71.1 °F (2:54 am)
Humidity76 %91 % (10:54 pm)63 % (2:54 pm)
Barometer29.88 in29.94 in (8:54 am)29.83 in (2:54 pm)
Wind Speed12.7 mph19.6 mph (10:54 am)
Wind Gust25.3 mph (12:54 pm)
Weather ElementAverage
Visibility10 mi
Wind DirectionENE (57.8 °)

Weather ElementTotal
Precipitation0.02 in
Cooling Degree Days15.9 (Base 65)
Growing Degree Days30.9 (Base 50)
Averaged from 23 records on January 11, 2014
WEATHER CONDITIONS BREAKOUT
WIND DIRECTION BREAKOUT
WEATHER BY HOUR - JANUARY 11, 2014
[ °C ]   °F
Local TimeTemperatureDewpointHumidityBarometerVisibilityWind DirectionWind SpeedGust SpeedPrecipitationEventsConditions
1:54 AM78.1 °F73.0 °F84 %29.88 in10.0 miENE (60°)8.1 mphPartly Cloudy
2:54 AM77.0 °F71.1 °F82 %29.86 in10.0 miENE (60°)9.2 mphClear
3:54 AM78.1 °F71.1 °F79 %29.85 in10.0 miENE (60°)11.5 mphClear
4:54 AM78.1 °F71.1 °F79 %29.86 in10.0 miENE (60°)12.7 mphClear
5:54 AM78.1 °F71.1 °F79 %29.88 in10.0 miENE (60°)10.4 mphPartly Cloudy
6:54 AM78.1 °F71.1 °F79 %29.90 in10.0 miENE (60°)11.5 mphClear
7:54 AM80.1 °F73.0 °F79 %29.92 in10.0 miENE (60°)11.5 mphClear
8:54 AM80.1 °F73.0 °F79 %29.94 in10.0 miENE (60°)15.0 mph0.00 inScattered Clouds
9:54 AM82.9 °F71.1 °F67 %29.93 in10.0 miENE (60°)18.4 mphScattered Clouds
10:54 AM84.9 °F72.0 °F65 %29.92 in10.0 miNE (50°)19.6 mphMostly Cloudy
11:54 AM84.0 °F71.1 °F65 %29.89 in10.0 miENE (70°)18.4 mphMostly Cloudy
12:54 PM84.9 °F72.0 °F65 %29.87 in10.0 miENE (60°)16.1 mph25.3 mphOvercast
1:54 PM84.9 °F72.0 °F65 %29.85 in10.0 miENE (60°)17.3 mphScattered Clouds
2:54 PM84.9 °F71.1 °F63 %29.83 in10.0 miNE (50°)18.4 mphMostly Cloudy
3:54 PM84.9 °F72.0 °F65 %29.83 in10.0 miNE (50°)16.1 mphMostly Cloudy
4:54 PM80.1 °F72.0 °F76 %29.84 in10.0 miNE (50°)16.1 mph0.01 inMostly Cloudy
5:54 PM81.0 °F71.1 °F72 %29.85 in10.0 miENE (60°)11.5 mphScattered Clouds
6:54 PM79.0 °F71.1 °F77 %29.87 in10.0 miENE (60°)12.7 mphMostly Cloudy
7:54 PM79.0 °F73.0 °F82 %29.89 in10.0 miNE (50°)5.8 mphScattered Clouds
8:54 PM79.0 °F73.0 °F82 %29.90 in10.0 miENE (60°)8.1 mphMostly Cloudy
9:54 PM78.1 °F75.0 °F90 %29.89 in10.0 miENE (60°)9.2 mph0.01 inMostly Cloudy
10:54 PM76.8 °F73.9 °F91 %29.88 in10.0 miNE (40°)4.6 mphScattered Clouds
11:54 PM79.2 °F73.9 °F84 %29.88 in10.0 miENE (70°)10.4 mphMostly Cloudy
Hourly data recorded from PGUM, located miles away from Agat, Guam







STORIES FROM OUR PARTNERS